Station 46029 (LLNR 688) - COLUMBIA RIVER BAR - 20NM West of Columbia River Mouth Image indicating link to RSS feed of recent meteorological observations for station 46029


Conditions at 46029 as of
(7:10 pm PDT on 07/13/2024)
0210 GMT on 07/14/2024:
     

Click on the graph icon in the table below to see a time series plot of the last five days of that observation.

5-day plot - Wind Direction Wind Direction (WDIR):NNW ( 330 deg true )
5-day plot - Wind Speed Wind Speed (WSPD): 11.7 kts
5-day plot - Wind Gust Wind Gust (GST): 15.5 kts
5-day plot - Wave Height Wave Height (WVHT): 6.2 ft
5-day plot - Average Wave Period Average Period (APD): 6.4 sec
5-day plot - Mean Wave Direction Mean Wave Direction (MWD): NW ( 317 deg true )
5-day plot - Atmospheric Pressure Atmospheric Pressure (PRES):30.04 in
5-day plot - Air Temperature Air Temperature (ATMP): 58.5 °F
5-day plot - Water Temperature Water Temperature (WTMP): 58.5 °F
5-day plot - Dew Point Dew Point (DEWP): 57.6 °F
5-day plot - Wind Speed at 10 Meters Wind Speed at 10 meters (WSPD10M): 13.6 kts
5-day plot - Wind Speed at 20 Meters Wind Speed at 20 meters (WSPD20M): 13.6 kts
5-day plot -  Wind Speed, Wind Gust and Atmospheric Pressure Combined plot of Wind Speed, Gust, and Air Pressure
Supplemental Measurements
Highest 1-minute Wind Speed
Time (PDT)5-day plot - 1-Minute Wind Speed WSPD 5-day plot - 1-Minute Wind Direction WDIR
7:03 pm 13.6 kts-
Previous observations
TIME
(PDT)
5-day plot - Wind Direction
WDIR
 
5-day plot - Wind Speed
WSPD
kts
5-day plot - Wind Gust
GST
kts
5-day plot - Wave Height
WVHT
ft
5-day plot - Dominant Wave Period
DPD
sec
5-day plot - Average Wave Period
APD
sec
5-day plot - Mean Wave Direction
MWD
 
5-day plot - Atmospheric Pressure
PRES
in
5-day plot - Pressure Tendency
PTDY
in
5-day plot - Air Temperature
ATMP
°F
5-day plot - Water Temperature
WTMP
°F
5-day plot - Dew Point
DEWP
°F
5-day plot - Salinity
SAL
psu
5-day plot - Visibility
VIS
nmi
5-day plot - Tide (above MLLW)
TIDE
ft
2024-07-13 07:00 pmNNW 11.7 15.5----30.04-0.02 58.5 58.5 57.6---
2024-07-13 06:50 pmNNW 11.7 13.6 5.9 86.3 NW30.04- 58.5 58.5 57.6---
2024-07-13 06:40 pmNNW 11.7 13.6----30.04- 58.5 58.6 57.6---
2024-07-13 06:30 pmNNW 9.7 13.6----30.05- 58.5 58.8 57.6---
2024-07-13 06:20 pmNNW 11.7 15.5 6.2 86.6 NW30.04- 58.5 58.6 57.6---
2024-07-13 06:10 pmNNW 11.7 15.5----30.04- 58.5 58.8 57.6---
2024-07-13 06:00 pmNNW 11.7 15.5----30.04-0.02 58.5 58.8 57.6---
2024-07-13 05:50 pmNNW 13.6 15.5 6.2 86.4 NW30.04- 58.5 58.8 57.6---
2024-07-13 05:40 pmNNW 11.7 15.5----30.04- 58.5 59.2 57.7---
2024-07-13 05:30 pmNNW 9.7 13.6----30.05- 58.5 58.8 57.7---
2024-07-13 05:20 pmNNW 9.7 11.7 5.6 86.3 NW30.05- 58.5 59.0 57.7---
2024-07-13 05:10 pmNNW 9.7 11.7----30.05- 58.5 59.2 57.7---
2024-07-13 05:00 pmNNW 9.7 11.7----30.05-0.02 58.5 59.2 57.7---
2024-07-13 04:50 pmNNW 9.7 11.7 5.6 96.6 NW30.05- 58.5 59.2 57.7---
2024-07-13 04:40 pmNNW 9.7 11.7----30.05- 58.5 59.0 57.7---
2024-07-13 04:30 pmNNW 9.7 11.7----30.06- 58.5 58.6 57.7---
2024-07-13 04:20 pmNNW 9.7 11.7 5.9 86.7 NW30.06- 58.5 58.6 57.7---
2024-07-13 04:10 pmNNW 9.7 11.7 5.9-6.7 NW30.06- 58.5 58.8 57.6---
2024-07-13 04:00 pmNNW 9.7 13.6----30.06-0.01 58.5 58.8 57.6---
2024-07-13 03:50 pmNNW 9.7 11.7 5.9 86.7 NW30.06- 58.5 58.8 57.6---
2024-07-13 03:40 pmNNW 9.7 13.6----30.06- 58.5 59.0 57.6---
2024-07-13 03:30 pm NW 9.7 11.7----30.06- 58.5 59.0 57.6---
2024-07-13 03:20 pm NW 9.7 11.7 5.9 86.4 NW30.06- 58.5 59.0 57.6---
2024-07-13 03:10 pmNNW 9.7 11.7 5.9-6.4 NW30.06- 58.5 59.0 57.6---
2024-07-13 03:00 pmNNW 9.7 11.7----30.06+0.00 58.3 59.2 57.4---
2024-07-13 02:50 pmNNW 9.7 11.7 5.6 86.3 NW30.07- 58.3 59.0 57.4---
2024-07-13 02:40 pmNNW 7.8 11.7 5.6-6.3 NW30.07- 58.3 59.0 57.4---
2024-07-13 02:30 pmNNW 7.8 9.7----30.07- 58.3 59.2 57.4---
2024-07-13 02:20 pmNNW 7.8 9.7 5.6 96.5 NW30.07- 58.3 59.0 57.4---
2024-07-13 02:10 pmNNW 7.8 11.7----30.07- 58.1 59.0 57.4---
2024-07-13 02:00 pmNNW 9.7 11.7----30.07-0.01 58.1 58.8 57.4---
2024-07-13 01:50 pmNNW 9.7 11.7 5.6 86.3 NW30.07- 58.1 58.8 57.4---
2024-07-13 01:40 pmNNW 9.7 11.7 5.6-6.3 NW30.07- 58.1 58.8 57.4---
2024-07-13 01:30 pmNNW 9.7 11.7----30.07- 58.1 58.6 57.4---
2024-07-13 01:20 pmNNW 9.7 11.7 5.6 86.2 NW30.07- 57.9 58.8 57.4---
2024-07-13 01:10 pmNNW 7.8 9.7 5.6-6.2 NW30.08- 57.9 58.8 57.4---
2024-07-13 01:00 pmNNW 7.8 9.7----30.07+0.00 57.9 58.5 57.6---
2024-07-13 12:50 pmNNW 7.8 9.7 6.6 86.6 NW30.07- 57.9 58.5 57.6---
2024-07-13 12:40 pmNNW 7.8 9.7----30.08- 57.7 58.1 57.6---
2024-07-13 12:30 pmNNW 7.8 9.7----30.07- 57.7 58.6 57.6---
2024-07-13 12:20 pmNNW 7.8 9.7 6.6 86.7 NW30.07- 57.6 58.6 57.6---
2024-07-13 12:10 pmNNW 7.8 9.7 6.6-6.7 NW30.07- 57.4 58.8 57.4---
2024-07-13 12:00 pmNNW 7.8 9.7----30.07+0.00 57.4 57.7 57.4---
2024-07-13 11:50 amNNW 5.8 7.8 5.6 86.2 NW30.07- 57.2 57.4 57.2---
2024-07-13 11:40 amNNW 5.8 7.8 5.6-6.2 NW30.08- 57.2 57.0 57.2---
2024-07-13 11:30 amNNW 3.9 5.8----30.08- 57.2 57.4 57.2---
2024-07-13 11:20 amNNW 3.9 5.8 5.9 86.3 NW30.08- 57.2 57.6 57.2---
2024-07-13 11:10 amNNW 3.9 5.8 5.9-6.3 NW30.08- 57.0 57.6 57.0---
2024-07-13 11:00 am N 3.9 7.8----30.08+0.00 57.0 57.6 57.0---
2024-07-13 10:50 am N 3.9 5.8 5.9 86.3 NW30.08- 57.0 57.4 57.0---
2024-07-13 10:40 am N 5.8 7.8----30.08- 57.2 57.2 57.2---
2024-07-13 10:30 am N 3.9 5.8----30.08- 57.2 57.4 57.2---
2024-07-13 10:20 amNNW 3.9 5.8 6.2 86.4 NW30.08- 57.0 57.2 57.0---
2024-07-13 10:10 am N 3.9 5.8----30.08- 57.0 57.2 57.0---
2024-07-13 10:00 amNNW 3.9 5.8----30.08+0.00 57.0 57.2 57.0---
2024-07-13 09:50 amNNW 3.9 5.8 6.2 86.1 NW30.08- 56.8 57.0 56.8---
2024-07-13 09:40 amNNW 3.9 5.8----30.08- 56.8 56.8 56.8---
2024-07-13 09:30 amNNW 3.9 5.8----30.08- 56.7 57.0 56.7---
2024-07-13 09:20 amNNW 3.9 5.8 5.9 86.0 NW30.08- 56.7 57.0 56.7---
2024-07-13 09:10 amNNW 3.9 5.8----30.08- 56.7 57.0 56.7---
2024-07-13 09:00 am NW 3.9 5.8----30.08+0.01 56.7 57.9 56.7---
2024-07-13 08:50 am NW 3.9 5.8 5.9 86.0WNW30.07- 56.7 57.9 56.7---
2024-07-13 08:40 am NW 3.9 5.8 5.9-6.0WNW30.07- 56.8 57.9 56.8---
2024-07-13 08:30 am NW 3.9 5.8----30.07- 56.8 57.9 56.8---
2024-07-13 08:20 amNNW 3.9 5.8 6.6 86.3 NW30.07- 56.8 57.9 56.8---
2024-07-13 08:10 am NW 3.9 5.8 6.6-6.3 NW30.07- 56.8 57.9 56.8---
2024-07-13 08:00 amNNW 3.9 5.8----30.08+0.01 56.8 57.7 56.8---
2024-07-13 07:50 amNNW 1.9 5.8 6.6 86.2WNW30.08- 56.8 57.7 56.8---
2024-07-13 07:40 amNNW 3.9 3.9----30.08- 56.8 57.7 56.8---
2024-07-13 07:30 amNNW 3.9 3.9----30.07- 56.7 57.0 56.7---
2024-07-13 07:20 amNNW 3.9 3.9 6.6 86.2 NW30.07- 56.7 57.0 56.7---
2024-07-13 07:10 am N 3.9 5.8 6.6-6.2 NW30.07- 56.7 56.8 56.7---
2024-07-13 07:00 am N 3.9 5.8----30.07+0.01 56.7 56.8 56.7---
2024-07-13 06:50 amNNW 3.9 5.8 6.6 86.2 NW30.07- 56.8 56.8 56.8---
2024-07-13 06:40 amNNW 3.9 7.8----30.07- 56.7 56.8 56.7---
2024-07-13 06:30 amNNW 3.9 5.8----30.07- 56.7 57.0 56.7---
2024-07-13 06:20 amNNW 3.9 5.8 6.6 86.3WNW30.07- 56.7 56.8 56.7---
2024-07-13 06:10 amNNW 3.9 5.8----30.07- 56.7 57.0 56.7---
2024-07-13 06:00 amNNW 5.8 7.8----30.06+0.00 56.7 56.8 56.7---
2024-07-13 05:50 amNNW 5.8 7.8 6.2 86.3 NW30.06- 56.7 56.7 56.5---
2024-07-13 05:40 amNNW 5.8 5.8----30.06- 56.7 56.7 56.5---
2024-07-13 05:30 amNNW 5.8 7.8----30.06- 56.8 56.7 56.5---
2024-07-13 05:20 amNNW 5.8 7.8 5.9 86.2 NW30.06- 56.8 56.7 56.5---
2024-07-13 05:10 amNNW 5.8 9.7----30.06- 57.0 56.7 56.3---
2024-07-13 05:00 amNNW 7.8 9.7----30.06-0.01 57.2 56.7 56.3---
2024-07-13 04:50 amNNW 9.7 13.6 5.9 86.2 NW30.06- 57.2 56.7 56.5---
2024-07-13 04:40 amNNW 7.8 11.7 5.9-6.2 NW30.06- 57.2 56.7 56.5---
2024-07-13 04:30 amNNW 5.8 11.7----30.06- 57.2 56.7 56.3---
2024-07-13 04:20 amNNW 9.7 13.6 6.2 86.3 NW30.06- 57.2 56.7 56.1---
2024-07-13 04:10 am N 9.7 13.6 6.2-6.3 NW30.06- 57.2 56.5 56.1---
2024-07-13 04:00 amNNW 9.7 13.6----30.06-0.01 57.2 56.5 56.1---
2024-07-13 03:50 amNNW 9.7 13.6 6.6 86.5 NW30.06- 57.2 56.5 56.1---
2024-07-13 03:40 amNNW 9.7 13.6 6.6-6.5 NW30.06- 57.2 56.5 56.1---
2024-07-13 03:30 amNNW 9.7 13.6----30.06- 57.2 56.5 56.1---
2024-07-13 03:20 amNNW 7.8 11.7 6.6 86.4 NW30.06- 57.4 56.5 56.3---
2024-07-13 03:10 am N 7.8 11.7 6.6-6.4 NW30.07- 57.4- 56.3---
2024-07-13 03:00 am N 9.7 11.7----30.07-0.02 57.2 56.7 56.1---
2024-07-13 02:50 am N 9.7 13.6 6.2 86.3 NW30.07- 57.2 56.7 56.1---
2024-07-13 02:40 am N 9.7 13.6----30.07- 57.2 56.8 56.1---
2024-07-13 02:30 am N 11.7 15.5----30.07- 57.0- 55.9---
2024-07-13 02:20 am N 11.7 15.5 6.2 86.1 NW30.07- 57.2 57.4 56.1---
2024-07-13 02:10 am N 11.7 15.5 6.2-6.1 NW30.07- 57.2 57.4 56.1---
2024-07-13 02:00 am N 11.7 15.5----30.07-0.01 57.4 57.4 56.3---
2024-07-13 01:50 am N 9.7 13.6 6.2 86.2 NW30.07- 57.4 57.4 56.3---
2024-07-13 01:40 am N 11.7 15.5 6.2-6.2 NW30.07- 57.4 57.4 56.1---
2024-07-13 01:30 am N 13.6 15.5----30.07- 57.2 57.4 55.9---
2024-07-13 01:20 am N 11.7 15.5 5.9 85.9 NW30.08- 57.2 57.4 56.1---
2024-07-13 01:10 am N 11.7 15.5 5.9-5.9 NW30.08- 57.2 57.4 55.9---
2024-07-13 01:00 am N 13.6 17.5----30.08-0.01 57.2 57.4 55.9---
2024-07-13 12:50 am N 13.6 17.5 6.9 86.3 NW30.07- 57.2 57.6 55.9---
2024-07-13 12:40 am N 13.6 17.5----30.08- 57.2 57.6 55.9---
2024-07-13 12:30 am N 11.7 17.5----30.08- 57.2 57.6 55.9---
2024-07-13 12:20 am N 11.7 15.5 6.6 86.0 NW30.08- 57.0 57.7 55.8---
2024-07-13 12:10 am N 11.7 15.5 6.6-6.0 NW30.08- 57.0 57.9 55.8---
2024-07-13 12:00 am N 13.6 15.5----30.08+0.00 57.0 57.9 55.8---
2024-07-12 11:50 pm N 11.7 17.5 6.6 86.0 NW30.08- 57.2 58.3 56.1---
2024-07-12 11:40 pm N 13.6 17.5 6.6-6.0 NW30.08- 57.2 58.3 55.9---
2024-07-12 11:30 pm N 13.6 17.5----30.08- 57.2 58.3 55.9---
2024-07-12 11:20 pm N 13.6 17.5 6.2 85.9 NW30.08- 57.2 58.3 55.9---
2024-07-12 11:10 pm N 13.6 17.5 6.2-5.9 NW30.08- 57.0 58.1 55.8---
2024-07-12 11:00 pm N 13.6 19.4----30.08+0.00 56.8 58.1 55.6---
2024-07-12 10:50 pm N 13.6 15.5 6.2 95.9 NW30.08- 57.0 58.1 55.9---
2024-07-12 10:40 pm N 13.6 17.5----30.08- 57.0 58.1 55.9---
2024-07-12 10:30 pm N 13.6 15.5----30.09- 56.8 58.3 55.8---
2024-07-12 10:20 pm N 13.6 17.5 6.6 86.0 NW30.09- 56.7 58.3 55.6---
2024-07-12 10:10 pm N 13.6 17.5----30.09- 56.7 58.3 55.6---
2024-07-12 10:00 pm N 13.6 17.5----30.09+0.00 56.8 58.3 55.9---
2024-07-12 09:50 pm N 13.6 15.5 6.2 95.8 NW30.09- 56.7 58.3 55.9---
2024-07-12 09:40 pm N 13.6 15.5----30.09- 56.5 58.1 55.8---
2024-07-12 09:30 pm N 11.7 15.5----30.09- 56.7 58.1 55.9---
2024-07-12 09:20 pm N 13.6 15.5 6.2 85.7 NW30.09- 56.7 58.1 55.9---
2024-07-12 09:10 pm N 13.6 17.5 6.2-5.7 NW30.09- 56.7 58.1 55.8---
2024-07-12 09:00 pm N 13.6 17.5----30.08-0.01 56.8 58.1 55.8---
2024-07-12 08:50 pm N 13.6 15.5 6.9 85.9 NW30.08- 56.8 57.9 55.9---
2024-07-12 08:40 pm N 13.6 17.5----30.08- 57.0 57.9 55.9---
2024-07-12 08:30 pmNNW 13.6 17.5----30.08- 57.2 57.9 56.1---
2024-07-12 08:20 pm N 13.6 17.5 6.2 85.7 NW30.09- 57.2 58.1 55.9---
2024-07-12 08:10 pm N 13.6 17.5 6.2-5.7 NW30.09- 57.2 58.3 55.8---
2024-07-12 08:00 pm N 13.6 15.5----30.09-0.02 57.4 58.3 55.8---
2024-07-12 07:50 pmNNW 13.6 17.5 7.2 86.2 NW30.09- 57.4 58.5 55.6---
2024-07-12 07:40 pmNNW 15.5 19.4 7.2-6.2 NW30.09- 57.4 58.5 55.6---
2024-07-12 07:30 pmNNW 13.6 19.4----30.09- 57.6 58.5 55.8---
2024-07-12 07:20 pmNNW 15.5 19.4 6.6 96.0 NW30.09- 57.6 58.5 55.6---
2024-07-12 07:10 pmNNW 13.6 17.5 6.6-6.0 NW30.09- 57.6 58.5 55.6---
2024-07-12 07:00 pmNNW 15.5 17.5----30.09-0.04 57.6 58.5 55.6---
2024-07-12 06:50 pmNNW 13.6 21.4 6.6 96.0NNW30.09- 57.6 58.3 55.6---

Detailed Wave Summary
for 46029 as of
(7:10 pm PDT on 07/13/2024)
0210 GMT on 07/14/2024:

These wave data are displayed in rounded times.

     

Click on the graph icon in the table below to see a time series plot of the last five days of that observation.

5-day plot - Significant Wave Height Significant Wave Height (WVHT): 6.2 ft
5-day plot - Swell Height Swell Height (SwH): 5.6 ft
5-day plot - Swell Period Swell Period (SwP): 8.3 sec
5-day plot - Swell Direction Swell Direction (SwD): NW
5-day plot - Wind Wave Height Wind Wave Height (WWH): 3.0 ft
5-day plot - Wind Wave Period Wind Wave Period (WWP): 5.9 sec
5-day plot - Wind Wave Direction Wind Wave Direction (WWD): NW
5-day plot - Wave Steepness Wave Steepness (STEEPNESS): AVERAGE
5-day plot - Average Wave Period Average Wave Period (APD): 6.4 sec
Previous observations
TIME
(PDT)
5-day plot - Wave Height
WVHT
ft
5-day plot - Swell Height
SwH
ft
5-day plot - Swell Period
SwP
sec
5-day plot - Swell Direction
SwD
 
5-day plot - Wind Wave Height
WWH
ft
5-day plot - Wind Wave Period
WWP
sec
5-day plot - Wind Wave Direction
WWD
 
5-day plot - Wave Steepness
STEEPNESS
 
5-day plot - Average Wave Period
APD
sec
2024-07-13 06:40 pm 5.9 5.2 8.3 NW 2.3 5.0 NW AVERAGE 6.3
2024-07-13 06:10 pm 6.2 5.6 8.3 NW 2.6 5.6 NW AVERAGE 6.6
2024-07-13 05:40 pm 6.2 5.6 7.7 NW 3.0 5.3 NW STEEP 6.4
2024-07-13 05:10 pm 5.6 5.2 8.3 NW 1.6 4.2 NW AVERAGE 6.3
2024-07-13 04:40 pm 5.6 5.6 9.1 NW 1.6 4.3 NW AVERAGE 6.6
2024-07-13 04:10 pm 5.9 5.6 8.3 NW 1.6 3.6 WNW AVERAGE 6.7
2024-07-13 03:40 pm 5.9 5.6 8.3 NW 2.0 4.5 WNW AVERAGE 6.7
2024-07-13 03:10 pm 5.9 5.6 8.3 NW 1.6 3.8 WNW AVERAGE 6.4
2024-07-13 02:40 pm 5.6 5.2 8.3 NW 1.6 3.6 WNW AVERAGE 6.3
2024-07-13 02:10 pm 5.6 5.6 9.1 NW 1.3 3.6 NW AVERAGE 6.5
2024-07-13 01:40 pm 5.6 5.2 8.3 NW 1.6 4.3 WNW AVERAGE 6.3
2024-07-13 01:10 pm 5.6 5.2 7.7 NW 1.3 3.3 WNW AVERAGE 6.2
2024-07-13 12:40 pm 6.6 6.2 8.3 NW 1.3 3.7 NW AVERAGE 6.6
2024-07-13 12:10 pm 6.6 6.6 8.3 NW 1.3 4.0 WNW AVERAGE 6.7
2024-07-13 11:40 am 5.6 5.2 8.3 NW 1.6 3.3 NNW AVERAGE 6.2
2024-07-13 11:10 am 5.9 5.9 7.7 NW 1.6 3.8 NW STEEP 6.3
2024-07-13 10:40 am 5.9 5.9 7.7 NW 1.3 3.6 NW STEEP 6.3
2024-07-13 10:10 am 6.2 5.9 7.7 NW 1.3 3.8 NW STEEP 6.4
2024-07-13 09:40 am 6.2 5.9 8.3 NW 1.6 3.3 NNW AVERAGE 6.1
2024-07-13 09:10 am 5.9 5.6 7.7 NW 1.6 4.0 WNW STEEP 6.0
2024-07-13 08:40 am 5.9 5.6 8.3WNW 1.6 3.8 WNW AVERAGE 6.0
2024-07-13 08:10 am 6.6 6.6 8.3 NW 1.6 3.8 WNW AVERAGE 6.3
2024-07-13 07:40 am 6.6 6.2 8.3WNW 1.6 3.7 WNW AVERAGE 6.2
2024-07-13 07:10 am 6.6 6.2 8.3 NW 1.6 3.6 WNW AVERAGE 6.2
2024-07-13 06:40 am 6.6 6.2 7.7 NW 1.6 3.6 WNW STEEP 6.2
2024-07-13 06:10 am 6.6 6.6 8.3WNW 1.6 4.0 WNW AVERAGE 6.3
2024-07-13 05:40 am 6.2 6.2 8.3 NW 1.3 3.2 NW AVERAGE 6.3
2024-07-13 05:10 am 5.9 5.6 8.3 NW 1.3 2.9 WNW AVERAGE 6.2
2024-07-13 04:40 am 5.9 5.9 8.3 NW 1.3 3.4 WNW AVERAGE 6.2
2024-07-13 04:10 am 6.2 5.9 8.3 NW 2.0 4.8 WNW AVERAGE 6.3
2024-07-13 03:40 am 6.6 6.2 8.3 NW 2.0 4.2 WNW AVERAGE 6.5
2024-07-13 03:10 am 6.6 6.2 8.3 NW 1.6 4.0 WNW AVERAGE 6.4
2024-07-13 02:40 am 6.2 5.9 8.3 NW 2.3 4.2 NW AVERAGE 6.3
2024-07-13 02:10 am 6.2 5.6 8.3 NW 3.0 4.2 WNW AVERAGE 6.1
2024-07-13 01:40 am 6.2 5.9 8.3 NW 2.6 4.8 NW AVERAGE 6.2
2024-07-13 01:10 am 5.9 5.2 8.3 NW 3.0 3.7 NW AVERAGE 5.9
2024-07-13 12:40 am 6.9 5.9 8.3 NW 3.3 4.8 NW AVERAGE 6.3
2024-07-13 12:10 am 6.6 5.9 8.3 NW 3.3 5.6 WNW AVERAGE 6.0
2024-07-12 11:40 pm 6.6 5.6 8.3 NW 3.3 5.0 NW AVERAGE 6.0
2024-07-12 11:10 pm 6.2 4.9 8.3 NW 3.9 4.8 WNW AVERAGE 5.9
2024-07-12 10:40 pm 6.2 4.9 9.1 NW 3.9 6.2 NW AVERAGE 5.9
2024-07-12 10:10 pm 6.6 5.2 8.3 NW 3.9 6.2 NW AVERAGE 6.0
2024-07-12 09:40 pm 6.2 4.9 9.1 NW 3.6 4.8 NW AVERAGE 5.8
2024-07-12 09:10 pm 6.2 4.6 8.3 NW 3.9 6.2 NW AVERAGE 5.7
2024-07-12 08:40 pm 6.9 5.2 8.3 NW 4.3 6.7 NW AVERAGE 5.9
2024-07-12 08:10 pm 6.2 4.6 8.3 NW 4.3 5.6 NW AVERAGE 5.7
2024-07-12 07:40 pm 7.2 5.9 8.3 NW 4.3 6.2 NW STEEP 6.2
2024-07-12 07:10 pm 6.6 4.6 9.1 NW 4.6 5.6 NW AVERAGE 6.0

Plot of wave energy versus frequency (and period)